TimeEST,TemperatureF,Dew PointF,Humidity,Sea Level PressureIn,VisibilityMPH,Wind Direction,Wind SpeedMPH,Gust SpeedMPH,PrecipitationIn,Events,Conditions,WindDirDegrees,DateUTC
12:51 AM,36.0,19.9,52,30.11,10.0,SSW,19.6,27.6,N/A,,Partly Cloudy,200,2013-01-19 05:51:00
1:51 AM,35.6,19.4,52,30.09,10.0,SSW,18.4,23.0,N/A,,Scattered Clouds,200,2013-01-19 06:51:00
2:51 AM,36.0,21.0,55,30.11,10.0,SSW,15.0,-,N/A,,Clear,200,2013-01-19 07:51:00
3:51 AM,39.0,19.9,46,30.09,10.0,SSW,15.0,25.3,N/A,,Clear,200,2013-01-19 08:51:00
4:51 AM,39.9,19.9,45,30.08,10.0,SSW,17.3,-,N/A,,Clear,210,2013-01-19 09:51:00
5:51 AM,39.9,19.9,45,30.08,10.0,SW,16.1,28.8,N/A,,Clear,220,2013-01-19 10:51:00
6:51 AM,39.9,19.9,45,30.07,10.0,SW,17.3,26.5,N/A,,Clear,220,2013-01-19 11:51:00
7:51 AM,39.9,21.0,47,30.08,10.0,SSW,18.4,26.5,N/A,,Partly Cloudy,210,2013-01-19 12:51:00
8:51 AM,41.0,21.9,47,30.08,10.0,SSW,18.4,28.8,N/A,,Scattered Clouds,210,2013-01-19 13:51:00
9:51 AM,44.1,23.0,43,30.08,10.0,SW,23.0,32.2,N/A,,Mostly Cloudy,220,2013-01-19 14:51:00
10:51 AM,46.0,25.0,44,30.07,10.0,SW,19.6,31.1,N/A,,Scattered Clouds,230,2013-01-19 15:51:00
11:51 AM,48.0,26.1,42,30.03,10.0,SW,25.3,34.5,N/A,,Mostly Cloudy,230,2013-01-19 16:51:00
12:51 PM,48.9,27.0,43,29.98,10.0,SSW,19.6,29.9,N/A,,Partly Cloudy,200,2013-01-19 17:51:00
1:51 PM,50.0,28.0,43,29.94,10.0,SSW,21.9,29.9,N/A,,Partly Cloudy,210,2013-01-19 18:51:00
2:51 PM,50.0,28.0,43,29.90,10.0,SSW,18.4,33.4,N/A,,Partly Cloudy,200,2013-01-19 19:51:00
3:51 PM,51.1,28.0,41,29.86,10.0,SSW,17.3,33.4,N/A,,Mostly Cloudy,200,2013-01-19 20:51:00
4:51 PM,50.0,27.0,41,29.83,10.0,SSW,27.6,35.7,N/A,,Mostly Cloudy,210,2013-01-19 21:51:00
5:51 PM,48.9,26.1,41,29.83,10.0,SSW,15.0,23.0,N/A,,Overcast,210,2013-01-19 22:51:00
6:51 PM,48.0,25.0,41,29.83,10.0,SSW,15.0,24.2,N/A,,Overcast,210,2013-01-19 23:51:00
7:51 PM,48.0,25.0,41,29.81,10.0,SSW,16.1,25.3,N/A,,Overcast,200,2013-01-20 00:51:00
8:51 PM,46.4,26.6,46,29.78,10.0,SSW,16.1,24.2,N/A,,Clear,210,2013-01-20 01:51:00
9:51 PM,46.9,26.1,44,29.77,10.0,SSW,19.6,27.6,N/A,,Clear,210,2013-01-20 02:51:00
10:51 PM,48.0,27.0,44,29.74,10.0,SW,21.9,38.0,N/A,,Overcast,220,2013-01-20 03:51:00
11:51 PM,46.9,28.9,50,29.71,10.0,SW,24.2,39.1,N/A,,Partly Cloudy,220,2013-01-20 04:51:00